GW0701 Weather Reports


time (UTC)temp
C
wind
direction
speed
KPH
gust
KPH
rain 1hr
cm
rain 24hr
cm
rain mn
cm
humidity
%
barometer
mb
20260906150456 23 138 8.0 11.3 0.00 0.00 0.00 91 1018.2
20260906145956 23 66 4.8 4.8 0.00 0.00 0.00 91 1018.5
20260906145455 23 78 11.3 12.9 0.00 0.00 0.00 91 1018.2
20260906144950 23 78 4.8 8.0 0.00 0.00 0.00 93 1018.2
20260906144444 23 74 3.2 3.2 0.00 0.00 0.00 93 1018.3
20260906143940 22 63 1.6 3.2 0.00 0.00 0.00 94 1018.1
20260906143435 22 90 3.2 3.2 0.00 0.00 0.00 94 1018.0
20260906142931 22 70 4.8 9.7 0.00 0.00 0.00 94 1018.1
20260906142430 22 86 4.8 8.0 0.00 0.00 0.00 94 1017.9
20260906141926 22 100 9.7 12.9 0.00 0.00 0.00 94 1017.9
20260906141420 22 60 3.2 4.8 0.00 0.00 0.00 94 1017.8
20260906140914 22 105 8.0 9.7 0.00 0.00 0.00 94 1017.8
20260906140408 22 63 1.6 3.2 0.00 0.00 0.00 95 1018.0
20260906135906 22 56 4.8 4.8 0.00 0.00 0.00 95 1017.8
20260906135400 22 72 3.2 4.8 0.00 0.00 0.00 95 1017.8
20260906134856 22 77 4.8 8.0 0.00 0.00 0.00 96 1017.6
20260906134351 22 72 4.8 8.0 0.00 0.00 0.00 96 1017.3
20260906133847 22 76 3.2 3.2 0.00 0.00 0.00 97 1017.5
20260906133342 22 83 1.6 1.6 0.00 0.00 0.00 97 1017.7
20260906132838 22 111 4.8 8.0 0.00 0.00 0.00 97 1017.6
20260906132332 22 95 4.8 8.0 0.00 0.00 0.00 97 1017.5
20260906131828 22 59 3.2 4.8 0.00 0.00 0.00 97 1017.5
20260906131323 22 319 4.8 9.7 0.00 0.00 0.00 97 1017.5
20260906130819 22 19 3.2 4.8 0.00 0.00 0.00 97 1017.4
20260906130318 22 126 6.4 11.3 0.00 0.00 0.00 97 1017.3
20260906125818 22 139 8.0 9.7 0.00 0.00 0.00 98 1017.2
20260906125315 22 70 8.0 11.3 0.00 0.00 0.00 98 1017.2
20260906124810 22 57 3.2 3.2 0.00 0.00 0.00 98 1017.3
20260906124306 22 45 1.6 3.2 0.00 0.00 0.00 98 1017.2
20260906123805 22 83 4.8 4.8 0.00 0.00 0.00 98 1017.2
20260906123300 22 89 0.0 0.0 0.00 0.00 0.00 99 1017.3
20260906122800 22 131 1.6 1.6 0.00 0.00 0.00 99 1017.1
20260906122255 22 72 1.6 3.2 0.00 0.00 0.00 99 1017.0
20260906121752 22 72 1.6 3.2 0.00 0.00 0.00 99 1017.1
20260906121248 22 86 1.6 3.2 0.00 0.00 0.00 99 1017.1
20260906120743 22 80 4.8 4.8 0.00 0.00 0.00 99 1017.0
20260906120240 22 98 4.8 4.8 0.00 0.00 0.00 99 1016.8
20260906115735 22 112 3.2 3.2 0.00 0.00 0.00 99 1017.1
20260906115230 22 64 1.6 1.6 0.00 0.00 0.00 99 1017.0
20260906114729 22 69 1.6 1.6 0.00 0.00 0.00 99 1016.8
20260906114224 22 76 4.8 8.0 0.00 0.00 0.00 99 1016.7
20260906113720 22 81 1.6 1.6 0.00 0.00 0.00 99 1016.8
20260906113219 22 88 3.2 3.2 0.00 0.00 0.00 99 1017.0
20260906112719 22 113 1.6 1.6 0.00 0.00 0.00 99 1017.0
20260906112216 22 44 1.6 1.6 0.00 0.00 0.00 99 1016.7
20260906111715 22 56 0.0 1.6 0.00 0.00 0.00 99 1016.8
20260906111210 22 81 0.0 1.6 0.00 0.00 0.00 99 1016.7
20260906110705 22 45 3.2 3.2 0.00 0.00 0.00 99 1016.7
20260906110200 22 46 1.6 1.6 0.00 0.00 0.00 99 1016.6
20260906105654 22 30 0.0 1.6 0.00 0.00 0.00 99 1016.6
20260906105150 22 47 1.6 1.6 0.00 0.00 0.00 99 1016.6
20260906104649 22 341 0.0 0.0 0.00 0.00 0.00 99 1016.5
20260906104143 22 62 1.6 3.2 0.00 0.00 0.00 99 1016.2
20260906103641 22 17 3.2 4.8 0.00 0.00 0.00 99 1016.3
20260906103137 22 353 0.0 1.6 0.00 0.00 0.00 99 1016.3
20260906102631 22 67 0.0 1.6 0.00 0.00 0.00 99 1016.5
20260906102125 22 86 0.0 0.0 0.00 0.00 0.00 99 1016.3
20260906101620 22 110 0.0 1.6 0.00 0.00 0.00 99 1015.8
20260906101115 22 109 0.0 1.6 0.00 0.00 0.00 99 1015.9
20260906100611 22 153 1.6 1.6 0.00 0.00 0.00 99 1016.1
20260906100111 22 85 1.6 3.2 0.00 0.00 0.00 99 1016.0
20260906095610 22 69 0.0 1.6 0.00 0.00 0.00 99 1016.0
20260906095106 22 104 3.2 3.2 0.00 0.00 0.00 99 1016.1
20260906094604 22 72 1.6 1.6 0.00 0.00 0.00 99 1016.0
20260906094101 22 116 3.2 3.2 0.00 0.00 0.00 99 1016.0
20260906093556 22 83 0.0 1.6 0.00 0.00 0.00 99 1015.9
20260906093051 22 86 0.0 1.6 0.00 0.00 0.00 99 1015.8
20260906092546 22 82 1.6 1.6 0.00 0.00 0.00 99 1015.9
20260906092041 22 144 1.6 1.6 0.00 0.00 0.00 99 1016.0
20260906091537 22 91 3.2 3.2 0.00 0.00 0.00 99 1015.5
20260906091033 22 84 3.2 3.2 0.00 0.00 0.00 99 1015.8
20260906090528 22 92 0.0 0.0 0.00 0.00 0.00 99 1015.6
20260906090023 22 108 1.6 3.2 0.00 0.00 0.00 99 1015.4
20260906085521 22 55 1.6 1.6 0.00 0.00 0.00 99 1015.3
20260906085021 22 85 3.2 3.2 0.00 0.00 0.00 99 1015.2
20260906084516 22 66 3.2 4.8 0.00 0.00 0.00 99 1015.3
20260906084015 22 86 0.0 0.0 0.00 0.00 0.00 99 1015.4
20260906083511 22 86 1.6 3.2 0.00 0.00 0.00 98 1015.4
20260906083010 22 80 3.2 3.2 0.00 0.00 0.00 98 1015.4
20260906082505 22 66 1.6 3.2 0.00 0.00 0.00 98 1015.4
20260906082001 22 67 1.6 1.6 0.00 0.00 0.00 99 1015.7
20260906081456 22 58 1.6 1.6 0.00 0.00 0.00 98 1015.5
20260906080952 22 76 4.8 4.8 0.00 0.00 0.00 99 1015.4
20260906080448 23 88 3.2 3.2 0.00 0.00 0.00 98 1015.4
20260906075943 23 86 3.2 4.8 0.00 0.00 0.00 98 1015.5
20260906075437 23 84 1.6 3.2 0.00 0.00 0.00 98 1015.7
20260906074932 23 69 1.6 3.2 0.00 0.00 0.00 98 1015.4
20260906074427 23 89 4.8 4.8 0.00 0.00 0.00 98 1015.7
20260906073926 23 100 3.2 4.8 0.00 0.00 0.00 98 1015.6
20260906073421 23 75 1.6 1.6 0.00 0.00 0.00 98 1015.5
20260906072917 23 55 1.6 1.6 0.00 0.00 0.00 98 1015.7
20260906072412 23 70 1.6 1.6 0.00 0.00 0.00 98 1015.5
20260906071908 23 58 1.6 1.6 0.00 0.00 0.00 98 1015.7
20260906071404 23 90 1.6 3.2 0.00 0.00 0.00 98 1015.7
20260906070859 23 77 1.6 1.6 0.00 0.00 0.00 97 1015.6
20260906070355 23 91 4.8 8.0 0.00 0.00 0.00 97 1015.6
20260906065851 23 72 1.6 4.8 0.00 0.00 0.00 97 1015.5
20260906065344 23 81 0.0 1.6 0.00 0.00 0.00 97 1015.9
20260906064840 23 55 1.6 3.2 0.00 0.00 0.00 97 1015.8
20260906064337 23 52 1.6 3.2 0.00 0.00 0.00 97 1015.9
20260906063836 23 66 0.0 1.6 0.00 0.00 0.00 97 1015.7
20260906063332 24 65 1.6 3.2 0.00 0.00 0.00 96 1015.8
20260906062827 24 63 1.6 1.6 0.00 0.00 0.00 96 1015.8
20260906062326 24 87 3.2 4.8 0.00 0.00 0.00 96 1015.7
20260906061822 24 77 4.8 8.0 0.00 0.00 0.00 96 1015.6
20260906061318 24 76 0.0 0.0 0.00 0.00 0.00 96 1015.7
20260906060813 24 89 1.6 3.2 0.00 0.00 0.00 96 1015.6
20260906060311 24 83 3.2 3.2 0.00 0.00 0.00 96 1015.3
20260906055807 24 57 3.2 3.2 0.00 0.00 0.00 96 1015.4
20260906055306 25 65 1.6 1.6 0.00 0.00 0.00 96 1015.6
20260906054756 25 49 1.6 3.2 0.00 0.00 0.00 96 1015.5
20260906054252 25 43 1.6 1.6 0.00 0.00 0.00 96 1015.7
20260906053748 25 42 4.8 4.8 0.00 0.00 0.00 96 1015.3
20260906053244 25 66 1.6 3.2 0.00 0.00 0.00 96 1015.2
20260906052739 25 36 3.2 3.2 0.00 0.00 0.00 96 1015.3
20260906052235 25 341 3.2 3.2 0.00 0.00 0.00 96 1015.3
20260906051732 25 44 3.2 4.8 0.00 0.00 0.00 96 1015.3
20260906051231 25 52 3.2 3.2 0.00 0.00 0.00 96 1015.2
20260906050727 25 94 4.8 4.8 0.00 0.00 0.00 95 1015.3
20260906050222 25 63 3.2 3.2 0.00 0.00 0.00 95 1015.2
20260906045720 25 70 4.8 4.8 0.00 0.00 0.00 95 1015.1
20260906045215 25 93 1.6 3.2 0.00 0.00 0.00 95 1015.2
20260906044711 25 25 1.6 1.6 0.00 0.00 0.00 95 1015.1
20260906044206 26 38 0.0 1.6 0.00 0.00 0.00 94 1015.0
20260906043702 26 101 1.6 1.6 0.00 0.00 0.00 94 1015.0
20260906043158 26 44 4.8 4.8 0.00 0.00 0.00 94 1015.0
20260906042657 26 71 4.8 4.8 0.00 0.00 0.00 93 1014.8
20260906042151 26 63 1.6 1.6 0.00 0.00 0.00 93 1014.9
20260906041647 26 60 1.6 3.2 0.00 0.00 0.00 93 1014.8
20260906041142 26 26 1.6 3.2 0.00 0.00 0.00 92 1014.8
20260906040637 26 57 4.8 4.8 0.00 0.00 0.00 92 1014.8
20260906040133 26 69 3.2 4.8 0.00 0.00 0.00 92 1014.7
20260906035628 26 71 3.2 3.2 0.00 0.00 0.00 92 1014.8
20260906035123 26 50 3.2 3.2 0.00 0.00 0.00 92 1014.6
20260906034618 26 68 3.2 3.2 0.00 0.00 0.00 93 1014.4
20260906034113 27 49 3.2 4.8 0.00 0.00 0.00 93 1014.2
20260906033609 27 49 3.2 4.8 0.00 0.00 0.00 93 1014.2
20260906033103 27 36 4.8 8.0 0.00 0.00 0.00 92 1014.3
20260906032600 27 29 1.6 3.2 0.00 0.00 0.00 92 1014.3
20260906032100 27 29 1.6 3.2 0.00 0.00 0.00 92 1014.3
20260906031555 27 79 1.6 1.6 0.00 0.00 0.00 93 1014.3
20260906031050 27 6 1.6 3.2 0.00 0.00 0.00 92 1014.2
20260906030550 27 44 3.2 3.2 0.00 0.00 0.00 92 1014.5
20260906030049 27 44 3.2 3.2 0.00 0.00 0.00 92 1013.9
20260906025544 27 44 3.2 4.8 0.00 0.00 0.00 93 1014.0
20260906025042 27 34 1.6 3.2 0.00 0.00 0.00 94 1014.1
20260906024537 27 327 3.2 3.2 0.00 0.00 0.00 94 1013.9
20260906024031 27 273 0.0 0.0 0.00 0.00 0.00 94 1014.0
20260906023528 27 285 0.0 0.0 0.00 0.00 0.00 93 1013.8
20260906023022 27 295 0.0 0.0 0.00 0.00 0.00 93 1013.7
20260906022518 27 255 0.0 0.0 0.00 0.00 0.00 92 1013.5
20260906022013 28 256 0.0 0.0 0.00 0.00 0.00 90 1013.5
20260906021508 28 214 0.0 0.0 0.00 0.00 0.00 90 1013.6
20260906021003 28 179 0.0 1.6 0.00 0.00 0.00 90 1013.5
20260906020501 28 65 1.6 1.6 0.00 0.00 0.00 90 1013.5
20260906020001 27 42 1.6 1.6 0.00 0.00 0.00 90 1013.3
20260906015501 27 57 1.6 1.6 0.00 0.00 0.00 91 1013.5
20260906015001 27 293 0.0 1.6 0.00 0.00 0.00 92 1013.3
20260906014455 27 48 0.0 0.0 0.00 0.00 0.00 91 1013.4
20260906013951 27 287 1.6 1.6 0.00 0.00 0.00 90 1013.4
20260906013447 28 288 1.6 1.6 0.00 0.00 0.00 90 1013.3
20260906012942 28 300 1.6 1.6 0.00 0.00 0.00 89 1013.3
20260906012437 28 290 0.0 1.6 0.00 0.00 0.00 89 1013.2
20260906011936 28 272 0.0 1.6 0.00 0.00 0.00 88 1013.4
20260906011432 28 288 1.6 1.6 0.00 0.00 0.00 88 1013.2
20260906010927 28 280 0.0 0.0 0.00 0.00 0.00 89 1013.3
20260906010422 28 272 0.0 0.0 0.00 0.00 0.00 89 1013.3
20260906005918 28 272 0.0 0.0 0.00 0.00 0.00 87 1013.2
20260906005418 28 272 0.0 0.0 0.00 0.00 0.00 86 1013.0
20260906004916 29 272 0.0 0.0 0.00 0.00 0.00 86 1012.8
20260906004411 29 272 0.0 0.0 0.00 0.00 0.00 84 1012.9
20260906003906 29 272 0.0 0.0 0.00 0.00 0.00 84 1012.9
20260906003402 30 272 0.0 0.0 0.00 0.00 0.00 83 1013.0
20260906002857 30 271 0.0 0.0 0.00 0.00 0.00 83 1013.0
20260906002356 30 232 0.0 0.0 0.00 0.00 0.00 82 1012.9
20260906001852 30 274 0.0 0.0 0.00 0.00 0.00 82 1013.0
20260906001348 30 264 0.0 0.0 0.00 0.00 0.00 81 1013.3
20260906000842 31 293 0.0 0.0 0.00 0.00 0.00 78 1013.1
20260906000337 31 289 0.0 1.6 0.00 0.00 0.00 77 1013.3
20260905235837 31 318 1.6 1.6 0.00 0.00 0.00 77 1013.4
20260905235331 31 339 1.6 3.2 0.00 0.00 0.00 76 1012.9
20260905234827 31 305 1.6 1.6 0.00 0.00 0.00 76 1013.0
20260905234322 31 286 1.6 1.6 0.00 0.00 0.00 76 1013.0
20260905233817 31 341 1.6 1.6 0.00 0.00 0.00 76 1012.9
20260905233312 31 38 0.0 1.6 0.00 0.00 0.00 75 1013.0
20260905232811 31 272 1.6 1.6 0.00 0.00 0.00 75 1013.0
20260905232307 31 309 1.6 1.6 0.00 0.00 0.00 74 1012.7
20260905231803 31 277 1.6 1.6 0.00 0.00 0.00 74 1012.5
20260905231258 31 290 1.6 1.6 0.00 0.00 0.00 75 1012.6
20260905230754 31 263 0.0 0.0 0.00 0.00 0.00 72 1012.5
20260905230252 32 253 0.0 0.0 0.00 0.00 0.00 72 1012.5
20260905225751 32 301 1.6 1.6 0.00 0.00 0.00 70 1012.5
20260905225247 32 3 1.6 1.6 0.00 0.00 0.00 70 1012.7
20260905224746 32 65 3.2 4.8 0.00 0.00 0.00 68 1012.5
20260905224242 32 128 3.2 3.2 0.00 0.00 0.00 68 1012.5
20260905223737 33 354 3.2 3.2 0.00 0.00 0.00 67 1012.4
20260905223234 33 332 3.2 3.2 0.00 0.00 0.00 66 1012.5
20260905222730 33 353 3.2 3.2 0.00 0.00 0.00 64 1012.3
20260905222228 33 353 4.8 4.8 0.00 0.00 0.00 62 1012.3
20260905221725 33 294 4.8 4.8 0.00 0.00 0.00 63 1012.4
20260905221221 33 338 3.2 3.2 0.00 0.00 0.00 64 1012.5
20260905220717 34 144 1.6 1.6 0.00 0.00 0.00 63 1012.4
20260905220213 34 285 3.2 3.2 0.00 0.00 0.00 64 1012.4
20260905215712 34 298 3.2 3.2 0.00 0.00 0.00 62 1012.6
20260905215208 33 61 4.8 4.8 0.00 0.00 0.00 64 1012.5
20260905214704 34 19 3.2 3.2 0.00 0.00 0.00 64 1012.7
20260905214159 33 344 4.8 8.0 0.00 0.00 0.00 65 1012.8
20260905213654 33 46 1.6 3.2 0.00 0.00 0.00 65 1012.8
20260905213150 33 294 3.2 3.2 0.00 0.00 0.00 64 1012.6
20260905212645 35 266 1.6 3.2 0.00 0.00 0.00 63 1012.4
20260905212144 35 37 1.6 1.6 0.00 0.00 0.00 61 1012.6
20260905211639 36 20 3.2 4.8 0.00 0.00 0.00 56 1012.6
20260905211134 35 327 1.6 3.2 0.00 0.00 0.00 56 1012.6
20260905210631 35 299 1.6 1.6 0.00 0.00 0.00 57 1012.6
20260905210126 36 252 3.2 4.8 0.00 0.00 0.00 55 1012.9
20260905205624 35 290 4.8 4.8 0.00 0.00 0.00 55 1012.7
20260905205119 35 331 4.8 4.8 0.00 0.00 0.00 57 1012.9
20260905204618 35 278 3.2 3.2 0.00 0.00 0.00 56 1012.7
20260905204114 35 311 0.0 1.6 0.00 0.00 0.00 56 1012.9
20260905203614 35 8 6.4 8.0 0.00 0.00 0.00 56 1012.9
20260905203109 35 226 3.2 3.2 0.00 0.00 0.00 56 1012.9
20260905202604 35 318 6.4 9.7 0.00 0.00 0.00 56 1013.1
20260905202059 35 14 6.4 8.0 0.00 0.00 0.00 58 1013.4
20260905201555 35 276 6.4 9.7 0.00 0.00 0.00 58 1013.2
20260905201054 35 267 3.2 4.8 0.00 0.00 0.00 57 1013.4
20260905200550 35 321 9.7 11.3 0.00 0.00 0.00 56 1013.3
20260905200044 35 305 4.8 4.8 0.00 0.00 0.00 57 1013.3
20260905195544 35 298 1.6 1.6 0.00 0.00 0.00 57 1013.3
20260905195040 35 300 4.8 4.8 0.00 0.00 0.00 59 1013.4
20260905194539 35 25 1.6 3.2 0.00 0.00 0.00 57 1013.5
20260905194038 35 308 0.0 1.6 0.00 0.00 0.00 57 1013.3
20260905193534 35 60 9.7 12.9 0.00 0.00 0.00 58 1013.5
20260905193029 35 125 1.6 1.6 0.00 0.00 0.00 61 1013.6
20260905192524 35 321 4.8 4.8 0.00 0.00 0.00 56 1013.6
20260905192020 35 19 4.8 4.8 0.00 0.00 0.00 57 1013.5
20260905191519 34 271 3.2 4.8 0.00 0.00 0.00 60 1013.6
20260905191018 34 320 3.2 4.8 0.00 0.00 0.00 59 1013.7
20260905190516 34 266 1.6 1.6 0.00 0.00 0.00 61 1013.7
20260905190016 34 355 3.2 3.2 0.00 0.00 0.00 63 1013.6
20260905185510 35 352 3.2 4.8 0.00 0.00 0.00 59 1013.8
20260905185009 35 20 9.7 11.3 0.00 0.00 0.00 58 1013.6
20260905184504 35 334 4.8 8.0 0.00 0.00 0.00 58 1013.9
20260905184003 35 0 8.0 9.7 0.00 0.00 0.00 57 1013.8
20260905183503 35 283 0.0 1.6 0.00 0.00 0.00 57 1013.9
20260905182957 35 13 4.8 4.8 0.00 0.00 0.00 57 1013.9
20260905182457 35 33 3.2 4.8 0.00 0.00 0.00 59 1013.8
20260905181952 34 319 4.8 4.8 0.00 0.00 0.00 59 1013.9
20260905181447 35 239 0.0 1.6 0.00 0.00 0.00 60 1014.0
20260905180946 34 328 3.2 3.2 0.00 0.00 0.00 58 1014.1
20260905180441 34 35 3.2 3.2 0.00 0.00 0.00 58 1013.9
20260905175936 34 16 4.8 4.8 0.00 0.00 0.00 57 1013.9
20260905175435 35 15 3.2 3.2 0.00 0.00 0.00 57 1014.0
20260905174931 35 320 1.6 1.6 0.00 0.00 0.00 58 1014.0
20260905174426 35 169 0.0 1.6 0.00 0.00 0.00 59 1014.0
20260905173922 34 300 1.6 1.6 0.00 0.00 0.00 58 1014.0
20260905173418 35 112 6.4 8.0 0.00 0.00 0.00 58 1014.3
20260905172913 35 326 3.2 3.2 0.00 0.00 0.00 58 1014.1
20260905172410 35 6 0.0 1.6 0.00 0.00 0.00 57 1014.3
20260905171907 35 242 0.0 1.6 0.00 0.00 0.00 58 1014.5
20260905171403 35 266 1.6 1.6 0.00 0.00 0.00 60 1014.5
20260905170859 35 266 0.0 1.6 0.00 0.00 0.00 57 1014.5
20260905170355 33 228 1.6 1.6 0.00 0.00 0.00 63 1014.4
20260905165854 33 89 0.0 1.6 0.00 0.00 0.00 63 1014.5
20260905165350 34 11 6.4 8.0 0.00 0.00 0.00 60 1014.6
20260905164844 33 23 4.8 4.8 0.00 0.00 0.00 62 1014.5
20260905164339 33 356 9.7 12.9 0.00 0.00 0.00 62 1014.7
20260905163835 33 38 6.4 8.0 0.00 0.00 0.00 65 1014.6
20260905163331 34 353 4.8 4.8 0.00 0.00 0.00 65 1014.6
20260905162827 35 268 1.6 1.6 0.00 0.00 0.00 63 1014.4
20260905162326 35 266 3.2 3.2 0.00 0.00 0.00 59 1014.5
20260905161821 35 252 0.0 1.6 0.00 0.00 0.00 62 1014.7
20260905161320 34 226 0.0 1.6 0.00 0.00 0.00 62 1014.5
20260905160818 34 246 0.0 0.0 0.00 0.00 0.00 65 1014.4
20260905160313 34 285 1.6 1.6 0.00 0.00 0.00 63 1014.4
20260905155807 33 235 1.6 1.6 0.00 0.00 0.00 67 1014.0
20260905155301 34 241 3.2 3.2 0.00 0.00 0.00 64 1014.3
20260905154755 34 256 0.0 1.6 0.00 0.00 0.00 65 1014.2
20260905154251 33 259 0.0 1.6 0.00 0.00 0.00 66 1014.4
20260905153746 33 257 0.0 1.6 0.00 0.00 0.00 67 1014.2
20260905153242 33 233 0.0 0.0 0.00 0.00 0.00 67 1014.1
20260905152737 33 248 1.6 3.2 0.00 0.00 0.00 67 1014.4
20260905152236 32 253 1.6 1.6 0.00 0.00 0.00 69 1014.4
20260905151731 33 288 1.6 1.6 0.00 0.00 0.00 69 1014.2
20260905151227 32 241 0.0 1.6 0.00 0.00 0.00 69 1014.3